Date String (YYYY-MM-DD hh:mm:ss) UTC,Instrument flags,Ambient pressure (hPa),Sample flow (lpm),Bypass flow (lpm),Sample temperature (°C),Ambient temperature (°C),ASC tube jacket temperature (°C),LED temperature (°C),Box temperature (°C),Sample RH (%),Mass concentration (μg/m³),Mass concentration (μg/m³)
DateTimeUTC,F1_M11,P_M11,Q1_M11,Q2_M11,T1_M11,T2_M11,T3_M11,T4_M11,T5_M11,U1_M11,X2_M11,X0_M11
2021-08-14 09:00:00,,0834.0,5.00,0.00,29.9,28.1,00.0,39.0,31.4,30.7,0012.49,0022.61
2021-08-14 09:01:00,,0834.0,4.99,0.00,29.9,28.3,00.0,39.0,31.5,30.7,0012.54,0022.45
2021-08-14 09:02:00,,0834.0,5.01,0.00,29.9,28.4,00.0,39.0,31.5,30.7,0012.52,0022.66
2021-08-14 09:03:00,,0834.0,4.99,0.00,29.9,28.5,00.0,39.0,31.6,30.6,0012.54,0022.97
2021-08-14 09:04:00,,0834.0,5.00,0.00,29.9,28.6,00.0,39.0,31.6,30.5,0012.55,0023.24
2021-08-14 09:05:00,,0834.0,5.01,0.00,30.0,28.7,00.0,39.0,31.6,30.4,0012.47,0022.54
2021-08-14 09:06:00,,0834.0,4.99,0.00,30.0,28.7,00.0,39.0,31.7,30.4,0012.39,0022.14
2021-08-14 09:07:00,,0834.0,4.99,0.00,30.0,28.8,00.0,39.0,31.7,30.3,0012.42,0022.23
2021-08-14 09:08:00,,0834.0,5.02,0.00,30.0,28.8,00.0,39.0,31.7,30.3,0012.49,0022.18
2021-08-14 09:09:00,,0834.0,4.99,0.00,30.0,28.9,00.0,39.0,31.8,30.2,0012.49,0022.31
2021-08-14 09:10:00,,0834.0,5.00,0.00,30.1,28.9,00.0,39.1,31.8,30.2,0012.47,0022.65
2021-08-14 09:11:00,,0834.0,5.00,0.00,30.1,29.0,00.0,39.1,31.8,30.2,0012.54,0023.89
2021-08-14 09:12:00,,0834.0,5.01,0.00,30.1,29.0,00.0,39.1,31.8,30.2,0012.54,0024.64
2021-08-14 09:13:00,,0834.0,4.99,0.00,30.1,29.1,00.0,39.1,31.9,30.1,0012.50,0025.79
2021-08-14 09:14:00,,0834.0,5.01,0.00,30.2,29.1,00.0,39.1,31.9,30.0,0012.50,0027.18
2021-08-14 09:15:00,,0834.0,5.00,0.00,30.1,28.4,00.0,39.1,31.7,30.0,0012.51,0027.26
2021-08-14 09:16:00,,0833.9,5.00,0.00,30.0,26.7,00.0,39.1,31.3,30.1,0012.52,0027.08
2021-08-14 09:17:00,,0833.9,5.00,0.00,29.9,26.3,00.0,39.1,31.1,30.3,0012.57,0028.07
2021-08-14 09:18:00,,0833.9,5.01,0.00,29.8,26.6,00.0,39.0,31.2,30.6,0012.55,0027.73
2021-08-14 09:19:00,,0833.8,5.00,0.00,29.7,27.0,00.0,39.0,31.2,30.8,0012.51,0027.00
2021-08-14 09:20:00,,0833.9,5.00,0.00,29.7,27.3,00.0,38.9,31.2,30.8,0012.53,0026.75
2021-08-14 09:21:00,,0833.8,5.00,0.00,29.7,27.6,00.0,38.9,31.3,30.7,0012.57,0026.71
2021-08-14 09:22:00,,0833.9,4.99,0.00,29.7,27.9,00.0,38.9,31.4,30.6,0012.47,0025.47
2021-08-14 09:23:00,,0833.9,5.01,0.00,29.7,28.1,00.0,38.9,31.4,30.6,0012.40,0024.82
2021-08-14 09:24:00,,0834.0,5.00,0.00,29.8,28.2,00.0,38.9,31.4,30.6,0012.40,0023.54
2021-08-14 09:25:00,,0834.0,4.99,0.00,29.8,28.3,00.0,38.9,31.5,30.6,0012.37,0022.08
2021-08-14 09:26:00,,0834.0,5.01,0.00,29.8,28.4,00.0,38.9,31.5,30.6,0012.34,0022.41
2021-08-14 09:27:00,,0834.0,4.99,0.00,29.8,28.5,00.0,38.9,31.5,30.5,0012.32,0022.56
2021-08-14 09:28:00,,0834.1,5.00,0.00,29.8,28.6,00.0,38.9,31.6,30.4,0012.29,0022.04
2021-08-14 09:29:00,,0834.0,5.00,0.00,29.9,28.7,00.0,38.9,31.6,30.3,0012.23,0022.14
2021-08-14 09:30:00,,0834.0,5.01,0.00,29.9,28.7,00.0,38.9,31.6,30.2,0012.25,0022.34
2021-08-14 09:31:00,,0834.0,4.99,0.00,29.9,28.8,00.0,38.9,31.7,30.1,0012.24,0022.80
2021-08-14 09:32:00,,0833.9,4.99,0.00,29.9,28.8,00.0,38.9,31.7,30.0,0012.23,0022.74
2021-08-14 09:33:00,,0833.9,5.00,0.00,30.0,28.9,00.0,39.0,31.7,30.0,0012.19,0022.60
2021-08-14 09:34:00,,0833.9,5.00,0.00,30.0,28.9,00.0,39.0,31.8,29.9,0012.16,0023.25
2021-08-14 09:35:00,,0833.9,5.00,0.00,30.0,29.0,00.0,39.0,31.7,29.8,0012.13,0023.52
2021-08-14 09:36:00,,0833.9,5.01,0.00,30.0,29.0,00.0,39.0,31.8,29.7,0012.10,0023.40
2021-08-14 09:37:00,,0833.9,5.00,0.00,30.0,29.0,00.0,39.0,31.8,29.7,0012.04,0023.43
2021-08-14 09:38:00,,0833.8,4.99,0.00,30.0,29.1,00.0,39.0,31.8,29.6,0012.07,0023.50
2021-08-14 09:39:00,,0833.7,5.00,0.00,30.0,28.4,00.0,39.0,31.6,29.6,0012.04,0023.78
2021-08-14 09:40:00,,0833.7,5.00,0.00,29.9,26.7,00.0,39.0,31.2,29.8,0012.14,0024.29
2021-08-14 09:41:00,,0833.7,4.99,0.00,29.8,26.2,00.0,39.0,31.1,30.1,0012.17,0024.20
2021-08-14 09:42:00,,0833.8,5.00,0.00,29.7,26.5,00.0,38.9,31.1,30.3,0012.17,0025.13
2021-08-14 09:43:00,,0833.7,5.01,0.00,29.6,26.9,00.0,38.9,31.1,30.6,0012.17,0026.05
2021-08-14 09:44:00,,0833.7,4.99,0.00,29.6,27.3,00.0,38.9,31.2,30.7,0012.20,0026.02
2021-08-14 09:45:00,,0833.7,4.99,0.00,29.6,27.6,00.0,38.8,31.3,30.5,0012.24,0025.23
2021-08-14 09:46:00,,0833.7,5.00,0.00,29.6,27.8,00.0,38.8,31.3,30.4,0012.34,0024.97
2021-08-14 09:47:00,,0833.7,5.01,0.00,29.6,28.0,00.0,38.8,31.3,30.4,0012.41,0026.13
2021-08-14 09:48:00,,0833.6,5.00,0.00,29.7,28.2,00.0,38.8,31.4,30.3,0012.44,0025.60
2021-08-14 09:49:00,,0833.7,5.00,0.00,29.7,28.3,00.0,38.8,31.4,30.2,0012.45,0025.57
2021-08-14 09:50:00,,0833.7,4.99,0.00,29.7,28.4,00.0,38.8,31.4,30.1,0012.49,0025.90
2021-08-14 09:51:00,,0833.7,4.99,0.00,29.7,28.5,00.0,38.8,31.5,30.0,0012.47,0025.92
2021-08-14 09:52:00,,0833.7,5.00,0.00,29.7,28.6,00.0,38.8,31.5,30.0,0012.39,0025.82
2021-08-14 09:53:00,,0833.7,5.00,0.00,29.8,28.6,00.0,38.8,31.6,29.8,0012.32,0024.38
2021-08-14 09:54:00,,0833.7,5.01,0.00,29.8,28.7,00.0,38.9,31.6,29.7,0012.24,0022.97
2021-08-14 09:55:00,,0833.7,4.98,0.00,29.8,28.8,00.0,38.9,31.6,29.7,0012.26,0023.81
2021-08-14 09:56:00,,0833.7,5.00,0.00,29.9,28.8,00.0,38.9,31.7,29.6,0012.22,0023.74
2021-08-14 09:57:00,,0833.7,4.99,0.00,29.9,28.9,00.0,38.9,31.7,29.4,0012.17,0024.00
2021-08-14 09:58:00,,0833.7,5.01,0.00,29.9,28.9,00.0,38.9,31.7,29.4,0012.15,0023.71
2021-08-14 09:59:00,,0833.7,4.99,0.00,29.9,29.0,00.0,38.9,31.8,29.3,0012.18,0024.11
